This is the latest recevied weather packets stored in our database for station/object DB5WY-13. If no packets are shown the sender has not sent any weather packets the latest 1 day(s).
| Time | Temp. | Humidity | Pressure | Rain* | Wind** | Luminosity | Snow |
|---|---|---|---|---|---|---|---|
| 1778061592 | 15° C | 75% | 1007.1 hPa | 0.51 mm | - | - | - |
| 1778056793 | 12.78° C | 85% | 1006.7 hPa | 0 mm | - | - | - |
| 1778056193 | 12.78° C | 86% | 1006.6 hPa | 0 mm | - | - | - |
| 1778055593 | 12.78° C | 88% | 1006.6 hPa | 0 mm | - | - | - |
| 1778054993 | 12.78° C | 89% | 1006.7 hPa | 0 mm | - | - | - |
| 1778054393 | 12.22° C | 90% | 1006.7 hPa | 0 mm | - | - | - |
| 1778053793 | 11.67° C | 91% | 1006.7 hPa | 0 mm | - | - | - |
| 1778053193 | 11.67° C | 92% | 1006.6 hPa | 0 mm | - | - | - |
| 1778052593 | 11.67° C | 92% | 1006.7 hPa | 0 mm | - | - | - |
| 1778051993 | 11.67° C | 93% | 1006.6 hPa | 0 mm | - | - | - |
| 1778051393 | 11.11° C | 94% | 1006.6 hPa | 0 mm | - | - | - |
| 1778050793 | 11.11° C | 93% | 1006.5 hPa | 0 mm | - | - | - |
| 1778050193 | 10.56° C | 94% | 1006.7 hPa | 0 mm | - | - | - |
| 1778049593 | 10.56° C | 94% | 1006.4 hPa | 0 mm | - | - | - |
| 1778048393 | 9.44° C | 94% | 1006.5 hPa | 0 mm | - | - | - |
| 1778047793 | 9.44° C | 94% | 1006.4 hPa | 0.51 mm | - | - | - |
| 1778047193 | 9.44° C | 94% | 1006.4 hPa | 0.51 mm | - | - | - |
| 1778046593 | 9.44° C | 94% | 1006.4 hPa | 0.51 mm | - | - | - |
| 1778045993 | 8.89° C | 94% | 1006.5 hPa | 0.51 mm | - | - | - |
| 1778045393 | 8.89° C | 94% | 1006.6 hPa | 0.51 mm | - | - | - |
| 1778044793 | 8.89° C | 94% | 1006.7 hPa | 0.51 mm | - | - | - |
| 1778044193 | 8.89° C | 94% | 1006.5 hPa | 0 mm | - | - | - |
| 1778042993 | 8.89° C | 94% | 1006.4 hPa | 0 mm | - | - | - |
| 1778042393 | 8.89° C | 94% | 1006.6 hPa | 0 mm | - | - | - |
| 1778041793 | 8.89° C | 94% | 1006.4 hPa | 0 mm | - | - | - |
* Rain latest hour (hover to see other rain measurements)
** Current wind speed in m/s (hover to see current wind gust speed)